TimeCST,TemperatureF,Dew PointF,Humidity,Sea Level PressureIn,VisibilityMPH,Wind Direction,Wind SpeedMPH,Gust SpeedMPH,PrecipitationIn,Events,Conditions,WindDirDegrees,DateUTC
12:16 AM,64.4,51.8,64,29.95,10.0,South,12.7,17.3,N/A,,Clear,190,2012-11-10 06:16:00
12:35 AM,64.4,51.8,64,29.95,10.0,South,12.7,19.6,N/A,,Clear,190,2012-11-10 06:35:00
12:55 AM,64.4,51.8,64,29.95,10.0,South,11.5,17.3,N/A,,Clear,190,2012-11-10 06:55:00
1:15 AM,64.4,50.0,59,29.95,10.0,South,12.7,18.4,N/A,,Clear,190,2012-11-10 07:15:00
1:35 AM,64.4,50.0,59,29.95,10.0,South,11.5,19.6,N/A,,Clear,180,2012-11-10 07:35:00
1:55 AM,62.6,50.0,63,29.95,10.0,South,13.8,18.4,N/A,,Clear,190,2012-11-10 07:55:00
2:15 AM,62.6,50.0,63,29.95,10.0,South,11.5,18.4,N/A,,Clear,180,2012-11-10 08:15:00
2:55 AM,62.6,50.0,63,29.95,10.0,South,13.8,19.6,N/A,,Clear,190,2012-11-10 08:55:00
3:35 AM,62.6,50.0,63,29.95,10.0,South,11.5,-,N/A,,Clear,190,2012-11-10 09:35:00
4:15 AM,62.6,50.0,63,29.96,10.0,South,12.7,20.7,N/A,,Clear,190,2012-11-10 10:15:00
4:35 AM,62.6,50.0,63,29.96,10.0,South,11.5,18.4,N/A,,Clear,190,2012-11-10 10:35:00
4:55 AM,62.6,50.0,63,29.97,10.0,South,11.5,17.3,N/A,,Clear,190,2012-11-10 10:55:00
5:15 AM,60.8,50.0,68,29.98,10.0,SSW,10.4,19.6,N/A,,Clear,200,2012-11-10 11:15:00
5:35 AM,60.8,50.0,68,29.98,10.0,South,6.9,-,N/A,,Clear,190,2012-11-10 11:35:00
5:55 AM,60.8,50.0,68,29.98,10.0,South,10.4,-,N/A,,Clear,190,2012-11-10 11:55:00
6:16 AM,60.8,50.0,68,29.97,10.0,South,9.2,-,N/A,,Clear,180,2012-11-10 12:16:00
6:35 AM,60.8,50.0,68,29.98,10.0,South,10.4,16.1,N/A,,Clear,190,2012-11-10 12:35:00
6:55 AM,60.8,50.0,68,29.99,10.0,South,9.2,16.1,N/A,,Clear,190,2012-11-10 12:55:00
7:35 AM,60.8,50.0,68,30.00,10.0,South,9.2,16.1,N/A,,Clear,180,2012-11-10 13:35:00
7:55 AM,62.6,51.8,68,30.00,10.0,South,10.4,16.1,N/A,,Clear,180,2012-11-10 13:55:00
8:15 AM,62.6,51.8,68,30.01,10.0,South,13.8,20.7,N/A,,Clear,190,2012-11-10 14:15:00
8:35 AM,64.4,51.8,64,30.01,10.0,SSW,13.8,24.2,N/A,,Clear,200,2012-11-10 14:35:00
9:15 AM,64.4,53.6,68,30.02,10.0,South,12.7,24.2,N/A,,Clear,190,2012-11-10 15:15:00
9:35 AM,66.2,53.6,64,30.01,10.0,South,15.0,20.7,N/A,,Clear,190,2012-11-10 15:35:00
10:15 AM,68.0,53.6,60,29.99,10.0,South,15.0,23.0,N/A,,Clear,190,2012-11-10 16:15:00
10:35 AM,66.2,53.6,64,29.99,10.0,South,20.7,29.9,N/A,,Clear,190,2012-11-10 16:35:00
11:15 AM,69.8,53.6,56,29.97,10.0,South,17.3,25.3,N/A,,Partly Cloudy,190,2012-11-10 17:15:00
11:35 AM,69.8,53.6,56,29.97,10.0,South,19.6,25.3,N/A,,Clear,180,2012-11-10 17:35:00
12:15 PM,71.6,53.6,53,29.95,10.0,South,19.6,27.6,N/A,,Clear,190,2012-11-10 18:15:00
12:55 PM,71.6,51.8,50,29.92,10.0,South,13.8,24.2,N/A,,Clear,180,2012-11-10 18:55:00
1:15 PM,73.4,51.8,47,29.91,10.0,South,16.1,25.3,N/A,,Clear,180,2012-11-10 19:15:00
1:35 PM,73.4,51.8,47,29.90,10.0,South,16.1,26.5,N/A,,Clear,180,2012-11-10 19:35:00
1:55 PM,73.4,51.8,47,29.89,10.0,South,18.4,25.3,N/A,,Clear,190,2012-11-10 19:55:00
2:35 PM,73.4,51.8,47,29.88,10.0,SSE,17.3,24.2,N/A,,Clear,160,2012-11-10 20:35:00
2:55 PM,73.4,51.8,47,29.88,10.0,South,11.5,20.7,N/A,,Clear,180,2012-11-10 20:55:00
3:35 PM,73.4,48.2,41,29.87,10.0,South,15.0,26.5,N/A,,Clear,180,2012-11-10 21:35:00
3:55 PM,73.4,48.2,41,29.85,10.0,South,16.1,27.6,N/A,,Clear,170,2012-11-10 21:55:00
4:15 PM,71.6,48.2,43,29.86,10.0,South,23.0,31.1,N/A,,Clear,180,2012-11-10 22:15:00
4:35 PM,71.6,48.2,43,29.87,10.0,South,20.7,28.8,N/A,,Clear,190,2012-11-10 22:35:00
4:55 PM,69.8,48.2,46,29.86,10.0,South,17.3,23.0,N/A,,Clear,170,2012-11-10 22:55:00
5:15 PM,69.8,50.0,49,29.86,10.0,South,13.8,20.7,N/A,,Clear,170,2012-11-10 23:15:00
5:36 PM,69.8,50.0,49,29.86,10.0,South,11.5,24.2,N/A,,Clear,170,2012-11-10 23:36:00
5:55 PM,68.0,50.0,52,29.87,10.0,SSE,15.0,25.3,N/A,,Clear,160,2012-11-10 23:55:00
6:15 PM,66.2,51.8,60,29.87,10.0,SSE,12.7,21.9,N/A,,Clear,160,2012-11-11 00:15:00
6:55 PM,66.2,51.8,60,29.89,10.0,SSE,13.8,20.7,N/A,,Clear,160,2012-11-11 00:55:00
7:35 PM,66.2,51.8,60,29.88,10.0,South,12.7,21.9,N/A,,Clear,170,2012-11-11 01:35:00
7:56 PM,66.2,51.8,60,29.89,10.0,South,16.1,21.9,N/A,,Clear,180,2012-11-11 01:56:00
8:15 PM,66.2,51.8,60,29.88,10.0,South,12.7,24.2,N/A,,Clear,180,2012-11-11 02:15:00
8:35 PM,66.2,53.6,64,29.87,10.0,South,20.7,27.6,N/A,,Clear,170,2012-11-11 02:35:00
9:35 PM,66.2,53.6,64,29.86,10.0,South,17.3,25.3,N/A,,Clear,180,2012-11-11 03:35:00
10:15 PM,66.2,53.6,64,29.86,10.0,South,17.3,25.3,N/A,,Clear,180,2012-11-11 04:15:00
10:35 PM,66.2,53.6,64,29.85,10.0,South,15.0,27.6,N/A,,Clear,180,2012-11-11 04:35:00
10:55 PM,66.2,53.6,64,29.85,10.0,South,12.7,24.2,N/A,,Clear,180,2012-11-11 04:55:00
11:35 PM,66.2,53.6,64,29.83,10.0,South,18.4,26.5,N/A,,Clear,170,2012-11-11 05:35:00
11:55 PM,66.2,53.6,64,29.84,10.0,South,12.7,21.9,N/A,,Clear,180,2012-11-11 05:55:00